Vertical_Velocity
-2 -4 -5 -2 4 -1 -2 -2 -3 -3 -4 -2 -3 -2 -1 0 0 -1 -1 -2 -1 1 1 -2 -0 -1 -1 0 -0 0 0 -1 -3 -0 -0 -1 -1 -2 0 -0 -2 -0 0 -30
0 -1 -2 -2 -2 -2 -4 -2 3 -3 -2 -4 -3 0 -1 0 0 2 -1 0 2 3 2 -3 -0 -1 1 1 1 -3 -1 2 -4 -1 -1 0 -2 -0 -1 1 4 -5 -2 -16
-2 -3 -2 -1 -4 -3 -2 -6 -2 -1 0 -1 -1 -2 -2 -1 1 1 2 1 1 -1 -2 3 -2 1 0 2 1 1 -0 1 -2 -7 2 4 -3 3 5 6 1 -5 -23 -22
-1 -0 -1 -0 0 0 -2 -1 0 3 -3 1 -1 -1 -0 1 -3 -0 2 1 1 1 -2 -1 -1 -1 -0 1 1 -1 3 -5 1 1 1 0 -6 8 4 -6 9 -8 -8 -19
-2 -0 2 -5 -3 -3 -0 -2 -3 3 0 1 1 -2 -2 0 -1 1 0 -1 2 3 -2 9 -7 7 9 3 -2 5 -1 -4 -3 -17 2 1 -10 5 4 7 7 -12 7 -30
-2 -1 -1 -2 -3 -1 -1 -2 -0 1 0 1 -0 -1 -1 2 -1 5 3 0 -4 1 1 -1 1 2 2 6 1 7 5 3 2 -11 2 0 -12 0 0 -2 1 6 -7 11
-1 -2 0 -2 -2 -0 -0 -0 -3 -3 -0 -2 0 2 -1 2 4 -4 9 2 1 -0 -1 -0 -1 3 -1 5 8 9 3 7 5 -4 -7 -3 0 2 2 2 0 -2 -2 3
-3 -1 -1 -0 0 1 1 -1 -3 -4 -7 -0 0 1 0 3 10 1 -1 5 5 3 -0 -8 -15 -9 1 -1 5 5 7 9 1 -1 -1 -14 -21 2 -0 4 1 -2 0 1
-3 3 1 3 0 -1 -0 4 0 0 -5 -4 -1 -3 -1 -7 -4 1 4 2 -0 -1 1 3 -1 -5 -4 3 1 1 2 4 4 1 1 -2 1 4 1 2 -8 5 -2 -3
-3 -1 2 1 0 1 1 -4 -4 1 -7 5 -2 -2 -4 1 1 -3 -2 -1 -7 4 -0 2 2 -5 -0 1 2 -0 1 0 -5 4 0 -13 -7 8 1 -1 -2 2 3 -1
-1 -3 -1 -3 -3 -2 2 3 2 0 -5 8 7 3 1 1 6 5 1 -8 5 -3 3 3 5 4 5 -3 2 0 3 4 -2 8 2 -18 4 -0 -6 -6 -4 0 -1 0
2 -0 -1 -0 -4 -5 -3 -1 2 -2 2 5 7 5 2 4 -4 2 4 6 4 7 7 5 1 -0 3 5 -7 4 -17 1 7 2 -12 8 5 7 4 5 -2 -2 -3 -0
2 0 -1 -2 -2 1 -4 -4 -2 -3 -4 -1 9 5 1 -1 2 3 -0 8 4 3 6 3 4 3 -4 3 -4 -4 1 16 3 15 5 1 15 8 9 5 -0 -3 -3 -4
1 -0 2 0 -1 -2 -0 -0 3 2 3 -5 3 7 6 7 5 0 1 -5 -5 -5 -0 0 0 6 2 -13 2 0 28 9 7 -4 -1 -2 16 7 -1 -2 -4 -1 -3 5
-1 1 -2 -1 -1 -0 -3 -1 1 2 4 -3 -2 -1 2 7 5 -2 1 3 -0 4 2 5 1 3 6 4 2 -2 6 9 9 -15 8 2 -6 -1 -4 0 3 0 -0 5
-2 -4 -4 -2 0 2 -1 1 -4 2 0 -2 -2 -4 -1 1 6 2 9 2 2 6 7 7 4 10 -1 -2 -8 -7 17 2 5 -9 2 -2 -4 -6 1 1 4 3 2 4
3 -1 -2 0 1 0 4 5 -0 -0 1 -1 -4 -2 0 -3 2 -4 -6 3 2 7 -0 -5 3 5 8 -7 3 6 12 26 15 10 3 13 3 1 16 12 6 5 4 -4
2 -1 0 -5 -3 -3 0 2 -3 -2 -3 -7 -0 -9 -9 -10 -2 -19 -6 -5 1 -3 -1 -0 -0 -1 0 2 17 12 -1 17 8 6 25 16 14 10 13 12 4 -7 -6 2
1 -0 -3 2 -5 -2 -3 -2 -3 -9 -5 -3 -4 4 -4 -11 -2 1 -10 5 -3 -4 1 8 -0 6 7 13 23 -2 -13 -9 -2 15 6 11 4 2 2 1 -9 -3 4 -0
-3 4 -5 -11 -1 -3 -4 -3 -6 -2 -6 -8 -5 -5 3 10 7 -9 -8 -2 -4 -3 -2 1 -2 4 3 11 9 1 6 2 0 -2 -5 6 7 2 -2 -10 2 2 0 -1
-3 -10 -3 1 -2 -3 -1 -0 -6 -3 -4 -2 -5 -1 1 1 -8 3 -0 -4 -2 -3 -3 -2 -1 4 2 6 3 7 -0 2 1 1 1 3 2 -6 -9 -2 3 -0 -0 -1
-3 -1 -1 0 -3 -1 -1 -4 -3 -5 -1 -2 -5 -3 1 -6 -4 -3 2 0 -2 -1 2 0 -1 -4 4 5 -5 11 1 2 6 4 1 3 0 -4 -9 -2 -0 -2 -3 -1
0 -6 0 -2 -1 -4 -1 -4 -4 -2 -1 -1 -3 -2 -2 -9 -1 2 -0 0 0 -1 -0 -2 6 5 1 5 7 -5 5 0 1 2 2 -2 -1 -1 -4 0 1 -3 -1 -1
-7 -0 0 -5 -2 -1 4 3 3 2 -2 -1 -2 3 6 1 -2 -2 0 -0 1 -2 -1 0 -1 1 -8 -8 1 5 -2 -4 -4 -4 -3 -4 -4 -0 0 -1 -2 -1 0 -1
-5 1 0 -3 -2 4 1 1 -1 1 -2 1 -4 -3 1 2 -1 -2 -3 -1 -3 -2 -4 -8 -0 -1 -3 -6 -9 -5 1 1 -0 -1 -4 -2 -3 -1 0 0 1 -1 -1 -1
-3 -1 -2 1 -0 3 4 1 -1 -1 -2 -2 -1 -4 -1 -1 -1 -0 -2 0 -6 -9 -0 -0 -4 3 -1 -3 0 -1 -3 -3 -0 3 1 0 -1 -0 0 0 0 -0 -0 -0
-4 -2 3 -2 2 1 -1 -2 1 2 -0 1 2 -1 -3 -2 0 -5 2 -3 3 2 -2 4 5 -8 -2 3 1 1 0 -1 -1 -1 1 -0 -1 -1 -1 -0 0 1 1 1
Height
3125 3121 3116 3112 3107 3101 3095 3090 3086 3081 3077 3074 3068 3065 3063 3061 3058 3055 3053 3051 3048 3045 3042 3038 3037 3035 3034 3031 3029 3025 3023 3022 3018 3016 3013 3012 3012 3012 3012 3013 3011 3008 3006 2985
3124 3119 3114 3109 3103 3098 3094 3088 3083 3079 3075 3071 3068 3065 3062 3060 3056 3053 3050 3049 3046 3043 3041 3039 3034 3032 3031 3029 3026 3024 3022 3018 3015 3010 3011 3009 3006 3006 3006 3006 3005 2998 3001 2980
3121 3117 3112 3107 3101 3096 3092 3087 3082 3077 3073 3069 3065 3062 3060 3058 3054 3051 3048 3045 3043 3040 3038 3036 3032 3029 3026 3024 3022 3020 3018 3013 3011 3007 3005 3004 3001 2999 2998 2999 2996 2986 2976 2971
3119 3114 3109 3104 3099 3094 3090 3085 3081 3077 3073 3069 3065 3061 3058 3055 3051 3049 3046 3042 3040 3037 3033 3030 3025 3023 3022 3019 3017 3013 3011 3006 3003 2999 2998 2996 2990 2987 2985 2982 2980 2981 2966 2965
3117 3111 3107 3102 3097 3091 3088 3083 3080 3077 3072 3067 3063 3060 3056 3052 3048 3046 3041 3039 3035 3032 3028 3027 3019 3018 3016 3013 3008 3006 3003 2998 2994 2988 2987 2985 2980 2975 2972 2970 2969 2966 2963 2955
3115 3110 3105 3100 3095 3089 3084 3080 3078 3075 3071 3065 3061 3058 3054 3050 3045 3040 3038 3033 3027 3024 3021 3017 3014 3011 3008 3005 3001 2999 2997 2994 2991 2981 2981 2979 2970 2959 2959 2959 2960 2960 2955 2957
3113 3109 3104 3098 3093 3088 3083 3077 3074 3069 3067 3063 3058 3054 3050 3046 3043 3036 3032 3027 3022 3019 3013 3008 3005 3001 2997 2992 2989 2989 2987 2989 2989 2979 2980 2977 2960 2958 2956 2954 2954 2952 2950 2952
3111 3107 3101 3096 3091 3086 3081 3076 3072 3066 3062 3059 3055 3050 3045 3039 3033 3029 3025 3021 3016 3011 3007 3002 2995 2990 2984 2979 2977 2977 2979 2983 2985 2980 2975 2964 2957 2952 2952 2951 2951 2948 2947 2947
3109 3104 3099 3094 3089 3084 3080 3074 3070 3064 3059 3056 3051 3043 3038 3029 3023 3018 3015 3013 3009 3006 3001 2996 2992 2987 2983 2978 2974 2973 2973 2976 2981 2977 2974 2964 2953 2951 2949 2948 2947 2946 2945 2944
3105 3101 3096 3091 3086 3082 3077 3072 3067 3060 3053 3050 3046 3039 3032 3026 3020 3014 3009 3004 3001 2996 2993 2989 2985 2981 2980 2976 2972 2971 2971 2970 2970 2970 2967 2952 2948 2946 2945 2947 2948 2941 2941 2940
3101 3096 3092 3087 3082 3077 3073 3068 3063 3056 3046 3043 3038 3032 3025 3019 3015 3011 3007 3002 2995 2990 2988 2985 2983 2978 2977 2974 2972 2970 2969 2966 2963 2960 2960 2952 2941 2941 2944 2941 2938 2936 2934 2934
3097 3091 3086 3082 3076 3070 3065 3061 3056 3049 3041 3036 3030 3023 3019 3016 3012 3006 3000 2999 2994 2991 2988 2985 2981 2978 2974 2971 2966 2964 2961 2958 2955 2952 2945 2942 2939 2939 2938 2935 2933 2931 2929 2928
3091 3085 3080 3076 3071 3066 3060 3054 3049 3041 3033 3026 3020 3016 3014 3009 3002 2999 2998 2994 2991 2988 2985 2980 2976 2973 2971 2965 2960 2955 2950 2950 2945 2943 2932 2934 2935 2933 2931 2926 2925 2925 2921 2917
3084 3079 3075 3070 3065 3060 3054 3048 3042 3034 3027 3018 3016 3012 3008 3002 2999 2996 2994 2991 2987 2983 2979 2975 2971 2966 2965 2960 2956 2951 2949 2943 2935 2924 2926 2924 2923 2921 2920 2919 2917 2916 2915 2914
3078 3073 3069 3065 3060 3054 3047 3040 3033 3026 3025 3016 3009 3006 3003 2999 2996 2994 2991 2986 2981 2976 2971 2967 2964 2960 2957 2954 2949 2946 2940 2934 2926 2915 2915 2912 2909 2911 2909 2909 2909 2908 2910 2910
3074 3068 3063 3058 3053 3047 3040 3031 3024 3020 3015 3010 3004 3002 3000 2999 2996 2990 2985 2978 2972 2967 2962 2958 2955 2954 2955 2951 2947 2943 2935 2923 2916 2908 2905 2899 2899 2900 2902 2901 2901 2904 2905 2904
3069 3063 3057 3052 3046 3040 3034 3028 3022 3015 3010 3005 3002 3001 3000 2996 2991 2985 2977 2971 2964 2959 2955 2952 2952 2951 2951 2948 2943 2937 2928 2917 2908 2904 2900 2893 2892 2896 2898 2898 2899 2900 2900 2900
3064 3058 3052 3045 3038 3030 3024 3019 3014 3011 3008 3005 3003 3000 2996 2991 2985 2978 2971 2964 2958 2955 2952 2950 2949 2947 2945 2942 2938 2931 2923 2914 2909 2904 2901 2898 2897 2896 2896 2896 2896 2898 2898 2895
3059 3053 3046 3039 3030 3023 3018 3014 3011 3009 3010 3005 3002 2998 2991 2987 2981 2975 2966 2960 2957 2954 2951 2948 2948 2945 2944 2943 2936 2928 2922 2916 2908 2905 2901 2898 2897 2896 2895 2896 2898 2895 2892 2890
3052 3048 3040 3029 3024 3018 3016 3011 3010 3006 3005 3002 3001 2996 2990 2986 2979 2972 2967 2961 2958 2955 2954 2949 2945 2945 2945 2940 2934 2926 2920 2916 2909 2903 2900 2899 2897 2896 2896 2896 2893 2890 2887 2884
3046 3038 3032 3025 3019 3016 3013 3011 3011 3007 3004 3001 2998 2993 2987 2983 2977 2972 2967 2964 2960 2957 2955 2951 2947 2945 2941 2936 2930 2925 2919 2914 2911 2907 2904 2900 2898 2896 2894 2892 2890 2888 2884 2880
3041 3036 3027 3021 3018 3015 3015 3013 3010 3007 3004 3000 2995 2991 2985 2980 2974 2970 2966 2962 2960 2957 2954 2950 2945 2943 2937 2931 2925 2920 2915 2910 2907 2904 2901 2899 2897 2894 2891 2887 2885 2882 2879 2875
3038 3031 3024 3022 3021 3020 3015 3013 3010 3007 3002 2998 2994 2990 2985 2978 2974 2969 2966 2963 2959 2956 2952 2949 2946 2941 2933 2925 2919 2915 2912 2907 2903 2899 2896 2894 2892 2890 2885 2881 2878 2875 2872 2869
3035 3028 3025 3024 3022 3019 3016 3012 3008 3004 2999 2996 2992 2988 2983 2977 2973 2969 2966 2962 2958 2954 2950 2946 2942 2935 2928 2920 2913 2906 2902 2899 2896 2892 2889 2886 2883 2880 2877 2874 2871 2868 2865 2862
3033 3028 3026 3023 3021 3017 3012 3007 3003 2999 2995 2991 2988 2983 2979 2975 2972 2969 2967 2962 2957 2952 2947 2940 2934 2928 2921 2915 2908 2902 2895 2890 2886 2882 2879 2876 2873 2870 2867 2865 2862 2860 2857 2855
3030 3025 3023 3019 3015 3013 3007 3003 2999 2994 2990 2987 2983 2979 2974 2971 2969 2967 2963 2959 2953 2948 2942 2935 2928 2920 2913 2906 2901 2895 2889 2882 2877 2873 2869 2866 2864 2861 2859 2857 2855 2852 2850 2848
3026 3022 3018 3014 3010 3006 3001 2996 2993 2989 2986 2983 2981 2978 2975 2971 2965 2962 2958 2953 2949 2943 2935 2930 2923 2914 2905 2898 2891 2884 2879 2873 2868 2864 2861 2859 2856 2854 2852 2849 2847 2845 2843 2841